Simultaneous Nadir Overpasses (SNOs) Predictions

Prediction of SNOs between GOES-16 and NOAA-19 Satellite Orbit:

Table of predicted SNOs for the next 14.0 days since TLE Epoch: 9/7/2024
Index Date Time (GOES-16) GOES-16 Lat,Lon NOAA-19 Lat,Lon Distance(km) Time Diff (sec)
1 09/08/2024 14:31:17 -0.04, -75.21 0.35, -76.99 202.97 80
2 09/09/2024 14:21:35 -0.04, -75.21 -0.32, -73.98 140.45 80
3 09/10/2024 14:09:12 -0.04, -75.21 -1.00, -70.97 483.91 80
4 09/12/2024 02:38:18 0.04, -75.21 -0.73, -78.60 386.73 80
5 09/13/2024 02:25:56 0.04, -75.21 -0.03, -75.59 43.04 80
6 09/14/2024 02:16:12 0.04, -75.22 0.62, -72.58 300.93 80
7 09/16/2024 14:32:39 -0.03, -75.24 0.42, -77.13 216.12 80
8 09/17/2024 14:22:57 -0.03, -75.25 -0.29, -74.12 128.41 80
9 09/18/2024 14:10:34 -0.03, -75.26 -1.01, -71.12 473.10 80
10 09/20/2024 02:42:18 0.03, -75.28 -0.74, -78.74 394.53 80
